Time,TemperatureF,DewpointF,PressureIn,WindDirection,WindDirectionDegrees,WindSpeedMPH,WindSpeedGustMPH,Humidity,HourlyPrecipIn,Conditions,Clouds,dailyrainin,SoftwareType,DateUTC
2013-07-21 08:15:00,72.0,-23.0,29.90,North,360,8.0,0.0,0,0.00,,,0.00,Rainwise IP-100,2013-07-21 12:15:00,
2013-07-21 08:20:00,71.0,-23.0,29.90,NNW,337,7.0,0.0,0,0.00,,,0.00,Rainwise IP-100,2013-07-21 12:20:00,
2013-07-21 08:25:00,71.0,-23.0,29.90,NNE,22,3.0,7.0,0,0.00,,,0.00,Rainwise IP-100,2013-07-21 12:25:00,
2013-07-21 08:30:00,70.0,-23.0,29.90,NNE,22,0.0,8.0,0,0.00,,,0.00,Rainwise IP-100,2013-07-21 12:30:00,
2013-07-21 08:35:00,70.0,-23.0,29.90,North,360,2.0,6.0,0,0.00,,,0.00,Rainwise IP-100,2013-07-21 12:35:00,
2013-07-21 08:40:00,70.0,-23.0,29.90,NW,315,0.0,3.0,0,0.00,,,0.00,Rainwise IP-100,2013-07-21 12:40:00,
2013-07-21 08:46:00,70.0,-23.0,29.91,North,360,0.0,6.0,0,0.00,,,0.00,Rainwise IP-100,2013-07-21 12:46:00,
2013-07-21 08:51:00,70.0,-23.0,29.91,East,90,0.0,6.0,0,0.00,,,0.00,Rainwise IP-100,2013-07-21 12:51:00,
2013-07-21 08:56:00,70.0,-23.0,29.91,North,360,0.0,6.0,0,0.00,,,0.00,Rainwise IP-100,2013-07-21 12:56:00,
2013-07-21 09:01:00,70.0,-23.0,29.91,SSW,202,0.0,6.0,0,0.00,,,0.00,Rainwise IP-100,2013-07-21 13:01:00,
2013-07-21 09:06:00,70.0,-23.0,29.91,South,180,0.0,3.0,0,0.00,,,0.00,Rainwise IP-100,2013-07-21 13:06:00,
2013-07-21 09:11:00,70.0,-23.0,29.91,South,180,0.0,0.0,0,0.00,,,0.00,Rainwise IP-100,2013-07-21 13:11:00,
2013-07-21 09:16:00,70.0,-23.0,29.91,South,180,0.0,0.0,0,0.00,,,0.00,Rainwise IP-100,2013-07-21 13:16:00,
2013-07-21 09:21:00,69.0,-23.0,29.91,ESE,112,0.0,3.0,0,0.00,,,0.00,Rainwise IP-100,2013-07-21 13:21:00,
2013-07-21 09:26:00,69.0,-23.0,29.90,ESE,112,0.0,2.0,0,0.00,,,0.00,Rainwise IP-100,2013-07-21 13:26:00,
2013-07-21 09:31:00,69.0,-23.0,29.90,ESE,112,0.0,2.0,0,0.00,,,0.00,Rainwise IP-100,2013-07-21 13:31:00,
2013-07-21 09:36:00,69.0,-23.0,29.91,ESE,112,0.0,0.0,0,0.00,,,0.00,Rainwise IP-100,2013-07-21 13:36:00,
2013-07-21 09:41:00,70.0,-23.0,29.91,North,360,0.0,3.0,0,0.00,,,0.00,Rainwise IP-100,2013-07-21 13:41:00,
2013-07-21 09:46:00,71.0,-23.0,29.90,NNE,22,0.0,5.0,0,0.00,,,0.00,Rainwise IP-100,2013-07-21 13:46:00,
2013-07-21 09:51:00,71.0,-23.0,29.90,East,90,2.0,5.0,0,0.00,,,0.00,Rainwise IP-100,2013-07-21 13:51:00,
2013-07-21 09:56:00,71.0,-23.0,29.90,NNE,22,3.0,3.0,0,0.00,,,0.00,Rainwise IP-100,2013-07-21 13:56:00,
2013-07-21 10:02:00,71.0,-23.0,29.90,NNE,22,0.0,4.0,0,0.00,,,0.00,Rainwise IP-100,2013-07-21 14:02:00,
2013-07-21 10:07:00,71.0,-23.0,29.90,North,360,0.0,5.0,0,0.00,,,0.00,Rainwise IP-100,2013-07-21 14:07:00,
2013-07-21 10:11:00,71.0,-23.0,29.90,North,360,6.0,6.0,0,0.00,,,0.00,Rainwise IP-100,2013-07-21 14:11:00,
2013-07-21 10:16:00,71.0,-23.0,29.92,NNW,337,6.0,8.0,0,0.00,,,0.00,Rainwise IP-100,2013-07-21 14:16:00,
2013-07-21 10:21:00,71.0,-23.0,29.92,NNW,337,3.0,8.0,0,0.00,,,0.00,Rainwise IP-100,2013-07-21 14:21:00,
2013-07-21 10:26:00,71.0,-23.0,29.92,NW,315,4.0,8.0,0,0.00,,,0.00,Rainwise IP-100,2013-07-21 14:26:00,
2013-07-21 10:31:00,71.0,-23.0,29.92,NW,315,1.0,5.0,0,0.00,,,0.00,Rainwise IP-100,2013-07-21 14:31:00,
2013-07-21 10:36:00,71.0,-23.0,29.92,NW,315,2.0,5.0,0,0.00,,,0.00,Rainwise IP-100,2013-07-21 14:36:00,
2013-07-21 10:41:00,72.0,-23.0,29.92,North,360,3.0,4.0,0,0.00,,,0.00,Rainwise IP-100,2013-07-21 14:41:00,
2013-07-21 10:46:00,73.0,-23.0,29.91,North,360,5.0,6.0,0,0.00,,,0.00,Rainwise IP-100,2013-07-21 14:46:00,
2013-07-21 10:51:00,73.0,-23.0,29.91,NNW,337,1.0,6.0,0,0.00,,,0.00,Rainwise IP-100,2013-07-21 14:51:00,
2013-07-21 10:56:00,73.0,-23.0,29.91,NNW,337,0.0,6.0,0,0.00,,,0.00,Rainwise IP-100,2013-07-21 14:56:00,
2013-07-21 10:57:00,73.0,-23.0,29.91,NE,45,0.0,6.0,0,0.00,,,0.00,Rainwise IP-100,2013-07-21 14:57:00,
2013-07-21 11:00:00,73.0,-23.0,29.91,NNE,22,1.0,6.0,0,0.00,,,0.00,Rainwise IP-100,2013-07-21 15:00:00,
2013-07-21 11:05:00,74.0,-23.0,29.91,NE,45,0.0,7.0,0,0.00,,,0.00,Rainwise IP-100,2013-07-21 15:05:00,
2013-07-21 11:10:00,74.0,-23.0,29.91,NNW,337,2.0,4.0,0,0.00,,,0.00,Rainwise IP-100,2013-07-21 15:10:00,
2013-07-21 11:15:00,74.0,-23.0,29.92,North,360,0.0,4.0,0,0.00,,,0.00,Rainwise IP-100,2013-07-21 15:15:00,
2013-07-21 11:20:00,74.0,-23.0,29.92,NNE,22,0.0,4.0,0,0.00,,,0.00,Rainwise IP-100,2013-07-21 15:20:00,
2013-07-21 11:25:00,74.0,-23.0,29.92,NNE,22,2.0,2.0,0,0.00,,,0.00,Rainwise IP-100,2013-07-21 15:25:00,
2013-07-21 11:30:00,73.0,-23.0,29.92,NE,45,2.0,3.0,0,0.00,,,0.00,Rainwise IP-100,2013-07-21 15:30:00,
2013-07-21 11:35:00,74.0,-23.0,29.92,North,360,2.0,3.0,0,0.00,,,0.00,Rainwise IP-100,2013-07-21 15:35:00,
2013-07-21 11:40:00,74.0,-23.0,29.92,North,360,4.0,4.0,0,0.00,,,0.00,Rainwise IP-100,2013-07-21 15:40:00,
2013-07-21 11:45:00,74.0,-23.0,29.92,NNE,22,3.0,4.0,0,0.00,,,0.00,Rainwise IP-100,2013-07-21 15:45:00,
2013-07-21 11:50:00,73.0,-23.0,29.92,NW,315,8.0,8.0,0,0.00,,,0.00,Rainwise IP-100,2013-07-21 15:50:00,
2013-07-21 11:55:00,73.0,-23.0,29.95,NW,315,7.0,0.0,0,0.00,,,0.00,Rainwise IP-100,2013-07-21 15:55:00,
2013-07-21 12:00:00,73.0,-23.0,29.95,NW,315,4.0,0.0,0,0.00,,,0.00,Rainwise IP-100,2013-07-21 16:00:00,
2013-07-21 12:06:00,73.0,-23.0,29.93,East,90,0.0,0.0,0,0.00,,,0.00,Rainwise IP-100,2013-07-21 16:06:00,
2013-07-21 12:11:00,73.0,-23.0,29.93,NE,45,2.0,0.0,0,0.00,,,0.00,Rainwise IP-100,2013-07-21 16:11:00,
2013-07-21 12:16:00,73.0,-23.0,29.92,NE,45,0.0,3.0,0,0.00,,,0.00,Rainwise IP-100,2013-07-21 16:16:00,
2013-07-21 12:21:00,73.0,-23.0,29.92,NE,45,0.0,0.0,0,0.00,,,0.00,Rainwise IP-100,2013-07-21 16:21:00,
2013-07-21 12:26:00,73.0,-23.0,29.92,NE,45,0.0,0.0,0,0.00,,,0.00,Rainwise IP-100,2013-07-21 16:26:00,
2013-07-21 12:31:00,73.0,-23.0,29.92,NE,45,0.0,0.0,0,0.00,,,0.00,Rainwise IP-100,2013-07-21 16:31:00,
2013-07-21 12:36:00,74.0,-23.0,29.92,NNE,22,3.0,4.0,0,0.00,,,0.00,Rainwise IP-100,2013-07-21 16:36:00,
2013-07-21 12:41:00,74.0,-23.0,29.92,East,90,1.0,4.0,0,0.00,,,0.00,Rainwise IP-100,2013-07-21 16:41:00,
2013-07-21 12:46:00,74.0,-23.0,29.92,East,90,2.0,3.0,0,0.00,,,0.00,Rainwise IP-100,2013-07-21 16:46:00,
2013-07-21 12:51:00,74.0,-23.0,29.92,ENE,67,1.0,3.0,0,0.00,,,0.00,Rainwise IP-100,2013-07-21 16:51:00,
2013-07-21 12:56:00,74.0,-23.0,29.92,NNE,22,0.0,3.0,0,0.00,,,0.00,Rainwise IP-100,2013-07-21 16:56:00,
2013-07-21 13:01:00,73.0,-23.0,29.92,NNW,337,2.0,7.0,0,0.00,,,0.00,Rainwise IP-100,2013-07-21 17:01:00,
2013-07-21 13:06:00,73.0,-23.0,29.94,NNW,337,3.0,7.0,0,0.00,,,0.00,Rainwise IP-100,2013-07-21 17:06:00,
2013-07-21 13:11:00,73.0,-23.0,29.94,NNW,337,2.0,6.0,0,0.00,,,0.00,Rainwise IP-100,2013-07-21 17:11:00,
2013-07-21 13:16:00,71.0,-23.0,29.93,NNE,22,1.0,7.0,0,0.00,,,0.00,Rainwise IP-100,2013-07-21 17:16:00,
2013-07-21 13:22:00,71.0,-23.0,29.93,NW,315,0.0,5.0,0,0.00,,,0.00,Rainwise IP-100,2013-07-21 17:22:00,
2013-07-21 13:27:00,70.0,-23.0,29.94,NW,315,1.0,6.0,0,0.00,,,0.00,Rainwise IP-100,2013-07-21 17:27:00,
2013-07-21 13:32:00,69.0,-23.0,29.94,NW,315,3.0,6.0,0,0.00,,,0.00,Rainwise IP-100,2013-07-21 17:32:00,
2013-07-21 13:37:00,70.0,-23.0,29.94,East,90,0.0,3.0,0,0.00,,,0.00,Rainwise IP-100,2013-07-21 17:37:00,
2013-07-21 13:42:00,70.0,-23.0,29.94,ESE,112,0.0,0.0,0,0.00,,,0.00,Rainwise IP-100,2013-07-21 17:42:00,
2013-07-21 13:47:00,70.0,-23.0,29.94,SE,135,0.0,0.0,0,0.00,,,0.00,Rainwise IP-100,2013-07-21 17:47:00,
2013-07-21 13:52:00,70.0,-23.0,29.94,SE,135,0.0,0.0,0,0.00,,,0.00,Rainwise IP-100,2013-07-21 17:52:00,
2013-07-21 13:57:00,70.0,-23.0,29.94,SE,135,0.0,0.0,0,0.00,,,0.00,Rainwise IP-100,2013-07-21 17:57:00,
2013-07-21 14:02:00,70.0,-23.0,29.94,SE,135,0.0,0.0,0,0.00,,,0.00,Rainwise IP-100,2013-07-21 18:02:00,
2013-07-21 14:07:00,70.0,-23.0,29.94,SE,135,0.0,0.0,0,0.00,,,0.00,Rainwise IP-100,2013-07-21 18:07:00,
2013-07-21 14:12:00,73.0,-23.0,29.94,SE,135,0.0,0.0,0,0.00,,,0.00,Rainwise IP-100,2013-07-21 18:12:00,
2013-07-21 14:17:00,73.0,-23.0,29.94,SE,135,0.0,0.0,0,0.00,,,0.00,Rainwise IP-100,2013-07-21 18:17:00,
2013-07-21 14:22:00,73.0,-23.0,29.94,SE,135,0.0,0.0,0,0.00,,,0.00,Rainwise IP-100,2013-07-21 18:22:00,
2013-07-21 14:27:00,73.0,-23.0,29.94,SE,135,0.0,0.0,0,0.00,,,0.00,Rainwise IP-100,2013-07-21 18:27:00,
2013-07-21 14:32:00,73.0,-23.0,29.94,SE,135,0.0,0.0,0,0.00,,,0.00,Rainwise IP-100,2013-07-21 18:32:00,
2013-07-21 14:38:00,73.0,-23.0,29.94,SE,135,0.0,0.0,0,0.00,,,0.00,Rainwise IP-100,2013-07-21 18:38:00,
2013-07-21 14:43:00,73.0,-23.0,29.94,SE,135,0.0,0.0,0,0.00,,,0.00,Rainwise IP-100,2013-07-21 18:43:00,
2013-07-21 14:48:00,73.0,-23.0,29.94,SE,135,0.0,0.0,0,0.00,,,0.00,Rainwise IP-100,2013-07-21 18:48:00,
2013-07-21 14:53:00,73.0,-23.0,29.94,SE,135,0.0,0.0,0,0.00,,,0.00,Rainwise IP-100,2013-07-21 18:53:00,
2013-07-21 14:58:00,73.0,-23.0,29.94,SE,135,0.0,0.0,0,0.00,,,0.00,Rainwise IP-100,2013-07-21 18:58:00,
2013-07-21 15:03:00,73.0,-23.0,29.94,SE,135,0.0,0.0,0,0.00,,,0.00,Rainwise IP-100,2013-07-21 19:03:00,
2013-07-21 15:08:00,73.0,-23.0,29.94,SE,135,0.0,0.0,0,0.00,,,0.00,Rainwise IP-100,2013-07-21 19:08:00,
2013-07-21 15:13:00,73.0,-23.0,29.94,SE,135,0.0,0.0,0,0.00,,,0.00,Rainwise IP-100,2013-07-21 19:13:00,
2013-07-21 15:18:00,73.0,-23.0,29.94,SE,135,0.0,0.0,0,0.00,,,0.00,Rainwise IP-100,2013-07-21 19:18:00,
2013-07-21 15:23:00,73.0,-23.0,29.94,SE,135,0.0,0.0,0,0.00,,,0.00,Rainwise IP-100,2013-07-21 19:23:00,
2013-07-21 15:28:00,75.0,-23.0,29.93,NNW,337,6.0,6.0,0,0.00,,,0.00,Rainwise IP-100,2013-07-21 19:28:00,
2013-07-21 15:33:00,75.0,-23.0,29.93,NNW,337,4.0,6.0,0,0.00,,,0.00,Rainwise IP-100,2013-07-21 19:33:00,
2013-07-21 15:38:00,75.0,-23.0,29.93,NNW,337,3.0,6.0,0,0.00,,,0.00,Rainwise IP-100,2013-07-21 19:38:00,
2013-07-21 15:43:00,75.0,-23.0,29.93,NNW,337,3.0,6.0,0,0.00,,,0.00,Rainwise IP-100,2013-07-21 19:43:00,
2013-07-21 15:48:00,75.0,-23.0,29.93,NNW,337,4.0,6.0,0,0.00,,,0.00,Rainwise IP-100,2013-07-21 19:48:00,
2013-07-21 15:54:00,75.0,-23.0,29.93,NNW,337,5.0,6.0,0,0.00,,,0.00,Rainwise IP-100,2013-07-21 19:54:00,
2013-07-21 15:59:00,75.0,-23.0,29.93,NNW,337,6.0,6.0,0,0.00,,,0.00,Rainwise IP-100,2013-07-21 19:59:00,
2013-07-21 16:04:00,75.0,-23.0,29.93,NNW,337,6.0,6.0,0,0.00,,,0.00,Rainwise IP-100,2013-07-21 20:04:00,
2013-07-21 16:09:00,75.0,-23.0,29.93,NNW,337,6.0,6.0,0,0.00,,,0.00,Rainwise IP-100,2013-07-21 20:09:00,
2013-07-21 16:14:00,75.0,-23.0,29.93,NNW,337,4.0,6.0,0,0.00,,,0.00,Rainwise IP-100,2013-07-21 20:14:00,
2013-07-21 16:19:00,75.0,-23.0,29.93,NNW,337,3.0,6.0,0,0.00,,,0.00,Rainwise IP-100,2013-07-21 20:19:00,
2013-07-21 16:24:00,75.0,-23.0,29.93,NNW,337,3.0,6.0,0,0.00,,,0.00,Rainwise IP-100,2013-07-21 20:24:00,
2013-07-21 16:29:00,75.0,-23.0,29.93,NNW,337,6.0,6.0,0,0.00,,,0.00,Rainwise IP-100,2013-07-21 20:29:00,
2013-07-21 16:34:00,77.0,-23.0,29.92,South,180,2.0,6.0,0,0.00,,,0.00,Rainwise IP-100,2013-07-21 20:34:00,
2013-07-21 16:39:00,77.0,-23.0,29.92,SE,135,1.0,5.0,0,0.00,,,0.00,Rainwise IP-100,2013-07-21 20:39:00,
2013-07-21 16:44:00,77.0,-23.0,29.92,East,90,4.0,5.0,0,0.00,,,0.00,Rainwise IP-100,2013-07-21 20:44:00,
2013-07-21 16:49:00,77.0,-23.0,29.92,East,90,3.0,5.0,0,0.00,,,0.00,Rainwise IP-100,2013-07-21 20:49:00,
2013-07-21 16:54:00,77.0,-23.0,29.92,SE,135,5.0,5.0,0,0.00,,,0.00,Rainwise IP-100,2013-07-21 20:54:00,
2013-07-21 16:59:00,77.0,-23.0,29.92,SE,135,1.0,5.0,0,0.00,,,0.00,Rainwise IP-100,2013-07-21 20:59:00,
2013-07-21 17:04:00,77.0,-23.0,29.92,SSE,157,1.0,5.0,0,0.00,,,0.00,Rainwise IP-100,2013-07-21 21:04:00,
2013-07-21 17:10:00,74.0,-23.0,29.93,WSW,247,4.0,5.0,0,0.00,,,0.00,Rainwise IP-100,2013-07-21 21:10:00,
2013-07-21 17:15:00,74.0,-23.0,29.93,ESE,112,0.0,5.0,0,0.00,,,0.00,Rainwise IP-100,2013-07-21 21:15:00,
2013-07-21 17:20:00,74.0,-23.0,29.93,ESE,112,0.0,4.0,0,0.00,,,0.00,Rainwise IP-100,2013-07-21 21:20:00,
2013-07-21 17:25:00,74.0,-23.0,29.93,SW,225,6.0,6.0,0,0.00,,,0.00,Rainwise IP-100,2013-07-21 21:25:00,
2013-07-21 17:30:00,73.0,-23.0,29.93,SE,135,6.0,8.0,0,0.00,,,0.00,Rainwise IP-100,2013-07-21 21:30:00,
2013-07-21 17:35:00,73.0,-23.0,29.94,SSW,202,0.0,9.0,0,0.00,,,0.00,Rainwise IP-100,2013-07-21 21:35:00,
2013-07-21 17:40:00,73.0,-23.0,29.94,SE,135,5.0,7.0,0,0.00,,,0.00,Rainwise IP-100,2013-07-21 21:40:00,
2013-07-21 17:45:00,72.0,-23.0,29.93,SE,135,4.0,7.0,0,0.00,,,0.00,Rainwise IP-100,2013-07-21 21:45:00,
2013-07-21 17:50:00,72.0,-23.0,29.93,SSE,157,0.0,5.0,0,0.00,,,0.00,Rainwise IP-100,2013-07-21 21:50:00,
2013-07-21 17:55:00,72.0,-23.0,29.93,SSE,157,0.0,1.0,0,0.00,,,0.00,Rainwise IP-100,2013-07-21 21:55:00,
2013-07-21 18:00:00,72.0,-23.0,29.93,SE,135,4.0,5.0,0,0.00,,,0.00,Rainwise IP-100,2013-07-21 22:00:00,
2013-07-21 18:05:00,72.0,-23.0,29.93,SSE,157,1.0,5.0,0,0.00,,,0.00,Rainwise IP-100,2013-07-21 22:05:00,
2013-07-21 18:10:00,72.0,-23.0,29.93,SE,135,3.0,5.0,0,0.00,,,0.00,Rainwise IP-100,2013-07-21 22:10:00,
2013-07-21 18:15:00,71.0,-23.0,29.92,ESE,112,0.0,6.0,0,0.00,,,0.00,Rainwise IP-100,2013-07-21 22:15:00,
2013-07-21 18:20:00,71.0,-23.0,29.92,ESE,112,0.0,6.0,0,0.00,,,0.00,Rainwise IP-100,2013-07-21 22:20:00,
2013-07-21 18:26:00,71.0,-23.0,29.92,ESE,112,0.0,0.0,0,0.00,,,0.00,Rainwise IP-100,2013-07-21 22:26:00,
2013-07-21 18:31:00,71.0,-23.0,29.92,ESE,112,0.0,0.0,0,0.00,,,0.00,Rainwise IP-100,2013-07-21 22:31:00,
2013-07-21 18:36:00,71.0,-23.0,29.92,ESE,112,0.0,0.0,0,0.00,,,0.00,Rainwise IP-100,2013-07-21 22:36:00,
2013-07-21 18:41:00,71.0,-23.0,29.92,SE,135,0.0,3.0,0,0.00,,,0.00,Rainwise IP-100,2013-07-21 22:41:00,
2013-07-21 18:46:00,71.0,-23.0,29.92,SE,135,0.0,0.0,0,0.00,,,0.00,Rainwise IP-100,2013-07-21 22:46:00,
2013-07-21 18:51:00,71.0,-23.0,29.92,SE,135,3.0,7.0,0,0.00,,,0.00,Rainwise IP-100,2013-07-21 22:51:00,
2013-07-21 18:56:00,71.0,-23.0,29.92,East,90,2.0,7.0,0,0.00,,,0.00,Rainwise IP-100,2013-07-21 22:56:00,
2013-07-21 19:01:00,71.0,-23.0,29.92,SE,135,3.0,7.0,0,0.00,,,0.00,Rainwise IP-100,2013-07-21 23:01:00,
2013-07-21 19:06:00,71.0,-23.0,29.92,SE,135,3.0,4.0,0,0.00,,,0.00,Rainwise IP-100,2013-07-21 23:06:00,
2013-07-21 19:11:00,71.0,-23.0,29.92,SE,135,3.0,4.0,0,0.00,,,0.00,Rainwise IP-100,2013-07-21 23:11:00,
2013-07-21 19:16:00,71.0,-23.0,29.92,SE,135,3.0,4.0,0,0.00,,,0.00,Rainwise IP-100,2013-07-21 23:16:00,
2013-07-21 19:21:00,71.0,-23.0,29.92,SE,135,3.0,4.0,0,0.00,,,0.00,Rainwise IP-100,2013-07-21 23:21:00,
2013-07-21 19:26:00,71.0,-23.0,29.92,SE,135,3.0,3.0,0,0.00,,,0.00,Rainwise IP-100,2013-07-21 23:26:00,
2013-07-21 19:31:00,71.0,-23.0,29.93,East,90,0.0,3.0,0,0.00,,,0.00,Rainwise IP-100,2013-07-21 23:31:00,
2013-07-21 19:36:00,71.0,-23.0,29.93,East,90,0.0,0.0,0,0.00,,,0.00,Rainwise IP-100,2013-07-21 23:36:00,
2013-07-21 19:42:00,71.0,-23.0,29.93,East,90,0.0,0.0,0,0.00,,,0.00,Rainwise IP-100,2013-07-21 23:42:00,
2013-07-21 19:47:00,71.0,-23.0,29.93,East,90,0.0,0.0,0,0.00,,,0.00,Rainwise IP-100,2013-07-21 23:47:00,
2013-07-21 19:52:00,71.0,-23.0,29.93,East,90,0.0,0.0,0,0.00,,,0.00,Rainwise IP-100,2013-07-21 23:52:00,
2013-07-21 19:57:00,71.0,-23.0,29.93,ENE,67,0.0,0.0,0,0.00,,,0.00,Rainwise IP-100,2013-07-21 23:57:00,
2013-07-21 20:02:00,70.0,-23.0,29.94,ESE,112,2.0,2.0,0,0.00,,,0.00,Rainwise IP-100,2013-07-22 00:02:00,
2013-07-21 20:07:00,70.0,-23.0,29.94,ESE,112,5.0,5.0,0,0.00,,,0.00,Rainwise IP-100,2013-07-22 00:07:00,
2013-07-21 20:12:00,70.0,-23.0,29.94,SE,135,4.0,5.0,0,0.00,,,0.00,Rainwise IP-100,2013-07-22 00:12:00,
2013-07-21 20:17:00,70.0,-23.0,29.94,SE,135,1.0,5.0,0,0.00,,,0.00,Rainwise IP-100,2013-07-22 00:17:00,
2013-07-21 20:22:00,70.0,-23.0,29.94,SE,135,0.0,5.0,0,0.00,,,0.00,Rainwise IP-100,2013-07-22 00:22:00,
2013-07-21 20:27:00,70.0,-23.0,29.94,SE,135,0.0,5.0,0,0.00,,,0.00,Rainwise IP-100,2013-07-22 00:27:00,
2013-07-21 20:32:00,69.0,-23.0,29.95,ESE,112,3.0,5.0,0,0.00,,,0.00,Rainwise IP-100,2013-07-22 00:32:00,
2013-07-21 20:37:00,69.0,-23.0,29.96,SSE,157,5.0,5.0,0,0.00,,,0.00,Rainwise IP-100,2013-07-22 00:37:00,
2013-07-21 20:42:00,69.0,-23.0,29.96,SE,135,2.0,5.0,0,0.00,,,0.00,Rainwise IP-100,2013-07-22 00:42:00,
2013-07-21 20:47:00,68.0,-23.0,29.97,SE,135,0.0,5.0,0,0.00,,,0.00,Rainwise IP-100,2013-07-22 00:47:00,
2013-07-21 20:52:00,68.0,-23.0,29.97,SE,135,0.0,0.0,0,0.00,,,0.00,Rainwise IP-100,2013-07-22 00:52:00,
2013-07-21 20:58:00,68.0,-23.0,29.97,South,180,1.0,2.0,0,0.00,,,0.00,Rainwise IP-100,2013-07-22 00:58:00,
2013-07-21 21:03:00,68.0,-23.0,29.97,South,180,0.0,2.0,0,0.00,,,0.00,Rainwise IP-100,2013-07-22 01:03:00,
2013-07-21 21:08:00,68.0,-23.0,29.97,South,180,0.0,2.0,0,0.00,,,0.00,Rainwise IP-100,2013-07-22 01:08:00,
2013-07-21 21:13:00,68.0,-23.0,29.97,SE,135,2.0,2.0,0,0.00,,,0.00,Rainwise IP-100,2013-07-22 01:13:00,
2013-07-21 21:18:00,68.0,-23.0,29.97,SE,135,0.0,2.0,0,0.00,,,0.00,Rainwise IP-100,2013-07-22 01:18:00,
2013-07-21 21:23:00,67.0,-23.0,29.97,ESE,112,0.0,4.0,0,0.00,,,0.00,Rainwise IP-100,2013-07-22 01:23:00,
2013-07-21 21:28:00,67.0,-23.0,29.97,SE,135,7.0,7.0,0,0.00,,,0.00,Rainwise IP-100,2013-07-22 01:28:00,
2013-07-21 21:33:00,67.0,-23.0,29.97,SE,135,7.0,9.0,0,0.00,,,0.00,Rainwise IP-100,2013-07-22 01:33:00,
2013-07-21 21:38:00,67.0,-23.0,29.97,SE,135,0.0,9.0,0,0.00,,,0.00,Rainwise IP-100,2013-07-22 01:38:00,
2013-07-21 21:43:00,67.0,-23.0,29.97,SE,135,0.0,4.0,0,0.00,,,0.00,Rainwise IP-100,2013-07-22 01:43:00,
2013-07-21 21:48:00,67.0,-23.0,29.97,SE,135,3.0,4.0,0,0.00,,,0.00,Rainwise IP-100,2013-07-22 01:48:00,
2013-07-21 21:53:00,67.0,-23.0,29.97,ESE,112,2.0,4.0,0,0.00,,,0.00,Rainwise IP-100,2013-07-22 01:53:00,
2013-07-21 21:58:00,67.0,-23.0,29.97,ESE,112,3.0,4.0,0,0.00,,,0.00,Rainwise IP-100,2013-07-22 01:58:00,
2013-07-21 22:03:00,67.0,-23.0,29.98,SE,135,1.0,4.0,0,0.00,,,0.00,Rainwise IP-100,2013-07-22 02:03:00,
2013-07-21 22:08:00,67.0,-23.0,29.98,SE,135,1.0,4.0,0,0.00,,,0.00,Rainwise IP-100,2013-07-22 02:08:00,
2013-07-21 22:14:00,67.0,-23.0,29.98,SE,135,1.0,4.0,0,0.00,,,0.00,Rainwise IP-100,2013-07-22 02:14:00,
2013-07-21 22:19:00,67.0,-23.0,29.98,SE,135,1.0,2.0,0,0.00,,,0.00,Rainwise IP-100,2013-07-22 02:19:00,
2013-07-21 22:24:00,67.0,-23.0,29.98,SE,135,6.0,6.0,0,0.00,,,0.00,Rainwise IP-100,2013-07-22 02:24:00,
2013-07-21 22:29:00,67.0,-23.0,29.98,SE,135,0.0,6.0,0,0.00,,,0.00,Rainwise IP-100,2013-07-22 02:29:00,
2013-07-21 22:34:00,67.0,-23.0,29.98,SE,135,0.0,2.0,0,0.00,,,0.00,Rainwise IP-100,2013-07-22 02:34:00,
2013-07-21 22:39:00,67.0,-23.0,29.98,SE,135,2.0,3.0,0,0.00,,,0.00,Rainwise IP-100,2013-07-22 02:39:00,
2013-07-21 22:44:00,67.0,-23.0,29.98,SE,135,3.0,6.0,0,0.00,,,0.00,Rainwise IP-100,2013-07-22 02:44:00,
2013-07-21 22:49:00,67.0,-23.0,29.98,SE,135,4.0,7.0,0,0.00,,,0.00,Rainwise IP-100,2013-07-22 02:49:00,
2013-07-21 22:54:00,67.0,-23.0,29.98,East,90,2.0,7.0,0,0.00,,,0.00,Rainwise IP-100,2013-07-22 02:54:00,
2013-07-21 22:59:00,67.0,-23.0,29.98,East,90,2.0,2.0,0,0.00,,,0.00,Rainwise IP-100,2013-07-22 02:59:00,
2013-07-21 23:04:00,67.0,-23.0,29.98,East,90,0.0,2.0,0,0.00,,,0.00,Rainwise IP-100,2013-07-22 03:04:00,
2013-07-21 23:09:00,67.0,-23.0,29.98,East,90,0.0,2.0,0,0.00,,,0.00,Rainwise IP-100,2013-07-22 03:09:00,
2013-07-21 23:14:00,67.0,-23.0,29.98,East,90,0.0,2.0,0,0.00,,,0.00,Rainwise IP-100,2013-07-22 03:14:00,
2013-07-21 23:19:00,67.0,-23.0,29.98,East,90,0.0,2.0,0,0.00,,,0.00,Rainwise IP-100,2013-07-22 03:19:00,
2013-07-21 23:24:00,67.0,-23.0,29.98,East,90,1.0,2.0,0,0.00,,,0.00,Rainwise IP-100,2013-07-22 03:24:00,
2013-07-21 23:30:00,67.0,-23.0,29.98,East,90,2.0,2.0,0,0.00,,,0.00,Rainwise IP-100,2013-07-22 03:30:00,
2013-07-21 23:35:00,67.0,-23.0,29.98,East,90,2.0,2.0,0,0.00,,,0.00,Rainwise IP-100,2013-07-22 03:35:00,
2013-07-21 23:40:00,67.0,-23.0,29.98,East,90,2.0,2.0,0,0.00,,,0.00,Rainwise IP-100,2013-07-22 03:40:00,
2013-07-21 23:45:00,67.0,-23.0,29.98,East,90,0.0,2.0,0,0.00,,,0.00,Rainwise IP-100,2013-07-22 03:45:00,
2013-07-21 23:50:00,67.0,-23.0,29.98,East,90,0.0,2.0,0,0.00,,,0.00,Rainwise IP-100,2013-07-22 03:50:00,
2013-07-21 23:55:00,67.0,-23.0,29.98,SE,135,1.0,2.0,0,0.00,,,0.00,Rainwise IP-100,2013-07-22 03:55:00,